Time,TemperatureF,DewpointF,PressureIn,WindDirection,WindDirectionDegrees,WindSpeedMPH,WindSpeedGustMPH,Humidity,HourlyPrecipIn,Conditions,Clouds,dailyrainin,SoftwareType,DateUTC
2013-07-17 00:04:00,66.6,54.0,30.23,NNW,344,1.1,1.1,64,0.00,-RA,OVC,0.00,WeatherDisplay:10.37,2013-07-17 06:04:00,
2013-07-17 00:09:00,66.5,53.9,30.23,NNW,343,3.5,3.5,64,0.00,-RA,OVC,0.00,WeatherDisplay:10.37,2013-07-17 06:09:00,
2013-07-17 00:14:00,66.5,54.4,30.23,NNW,343,2.3,2.3,65,0.00,-RA,OVC,0.00,WeatherDisplay:10.37,2013-07-17 06:14:00,
2013-07-17 00:19:00,66.4,54.3,30.23,NNW,344,2.3,2.3,65,0.00,-RA,OVC,0.00,WeatherDisplay:10.37,2013-07-17 06:19:00,
2013-07-17 00:24:00,66.3,54.2,30.23,North,9,3.5,3.5,65,0.00,-RA,OVC,0.00,WeatherDisplay:10.37,2013-07-17 06:24:00,
2013-07-17 00:29:00,66.2,54.1,30.23,NNE,17,3.5,3.5,65,0.00,-RA,OVC,0.00,WeatherDisplay:10.37,2013-07-17 06:29:00,
2013-07-17 00:34:00,66.1,54.4,30.23,North,350,5.8,5.8,66,0.00,-RA,OVC,0.00,WeatherDisplay:10.37,2013-07-17 06:34:00,
2013-07-17 00:39:00,66.0,54.3,30.23,North,360,3.5,3.5,66,0.00,-RA,OVC,0.00,WeatherDisplay:10.37,2013-07-17 06:39:00,
2013-07-17 00:44:00,65.9,54.2,30.23,North,360,3.5,3.5,66,0.00,-RA,OVC,0.00,WeatherDisplay:10.37,2013-07-17 06:44:00,
2013-07-17 00:49:00,65.8,54.5,30.23,North,360,0.0,0.0,67,0.00,-RA,OVC,0.00,WeatherDisplay:10.37,2013-07-17 06:49:00,
2013-07-17 00:54:00,65.7,54.4,30.23,North,360,0.0,0.0,67,0.00,-RA,OVC,0.00,WeatherDisplay:10.37,2013-07-17 06:54:00,
2013-07-17 00:59:00,65.6,54.3,30.23,North,360,0.0,0.0,67,0.00,-RA,OVC,0.00,WeatherDisplay:10.37,2013-07-17 06:59:00,
2013-07-17 01:04:00,65.5,54.7,30.23,North,360,4.6,4.6,68,0.00,-RA,OVC,0.00,WeatherDisplay:10.37,2013-07-17 07:04:00,
2013-07-17 01:09:00,65.5,54.7,30.23,North,5,3.5,3.5,68,0.00,-RA,OVC,0.00,WeatherDisplay:10.37,2013-07-17 07:09:00,
2013-07-17 01:14:00,65.4,54.6,30.23,North,5,1.1,1.1,68,0.00,-RA,OVC,0.00,WeatherDisplay:10.37,2013-07-17 07:14:00,
2013-07-17 01:19:00,65.3,54.9,30.23,North,5,1.1,1.1,69,0.00,-RA,OVC,0.00,WeatherDisplay:10.37,2013-07-17 07:19:00,
2013-07-17 01:24:00,65.2,54.8,30.23,North,5,3.5,3.5,69,0.00,-RA,OVC,0.00,WeatherDisplay:10.37,2013-07-17 07:24:00,
2013-07-17 01:29:00,65.0,55.0,30.23,North,9,3.5,3.5,70,0.00,-RA,OVC,0.00,WeatherDisplay:10.37,2013-07-17 07:29:00,
2013-07-17 01:34:00,65.0,55.0,30.23,North,9,2.3,2.3,70,0.00,-RA,OVC,0.00,WeatherDisplay:10.37,2013-07-17 07:34:00,
2013-07-17 01:39:00,64.9,54.9,30.23,North,9,1.1,0.0,70,0.00,-RA,OVC,0.00,WeatherDisplay:10.37,2013-07-17 07:39:00,
2013-07-17 01:44:00,64.7,55.1,30.23,North,11,3.5,3.5,71,0.00,-RA,OVC,0.00,WeatherDisplay:10.37,2013-07-17 07:44:00,
2013-07-17 01:49:00,64.5,54.9,30.23,North,11,2.3,2.3,71,0.00,-RA,OVC,0.00,WeatherDisplay:10.37,2013-07-17 07:49:00,
2013-07-17 01:54:00,64.3,54.7,30.23,North,11,0.0,0.0,71,0.00,-RA,OVC,0.00,WeatherDisplay:10.37,2013-07-17 07:54:00,
2013-07-17 01:59:00,64.2,54.6,30.23,North,11,0.0,0.0,71,0.00,-RA,OVC,0.00,WeatherDisplay:10.37,2013-07-17 07:59:00,
2013-07-17 02:04:00,63.9,54.7,30.23,North,11,0.0,0.0,72,0.00,-RA,OVC,0.00,WeatherDisplay:10.37,2013-07-17 08:04:00,
2013-07-17 02:09:00,63.6,54.4,30.23,North,11,0.0,0.0,72,0.00,-RA,OVC,0.00,WeatherDisplay:10.37,2013-07-17 08:09:00,
2013-07-17 02:14:00,63.2,54.4,30.23,North,11,0.0,0.0,73,0.00,-RA,OVC,0.00,WeatherDisplay:10.37,2013-07-17 08:14:00,
2013-07-17 02:19:00,62.8,54.4,30.23,North,11,0.0,0.0,74,0.00,-RA,OVC,0.00,WeatherDisplay:10.37,2013-07-17 08:19:00,
2013-07-17 02:24:00,62.4,54.4,30.23,North,11,0.0,0.0,75,0.00,-RA,OVC,0.00,WeatherDisplay:10.37,2013-07-17 08:24:00,
2013-07-17 02:29:00,62.0,54.3,30.23,North,11,0.0,0.0,76,0.00,-RA,OVC,0.00,WeatherDisplay:10.37,2013-07-17 08:29:00,
2013-07-17 02:34:00,61.6,54.3,30.23,North,11,2.3,2.3,77,0.00,-RA,OVC,0.00,WeatherDisplay:10.37,2013-07-17 08:34:00,
2013-07-17 02:39:00,61.3,54.0,30.23,North,11,0.0,0.0,77,0.00,-RA,OVC,0.00,WeatherDisplay:10.37,2013-07-17 08:39:00,
2013-07-17 02:44:00,61.2,53.9,30.23,North,11,0.0,0.0,77,0.00,-RA,OVC,0.00,WeatherDisplay:10.37,2013-07-17 08:44:00,
2013-07-17 02:49:00,61.0,53.4,30.23,North,11,0.0,0.0,76,0.00,-RA,OVC,0.00,WeatherDisplay:10.37,2013-07-17 08:49:00,
2013-07-17 02:54:00,61.0,53.7,30.23,North,11,0.0,0.0,77,0.00,-RA,OVC,0.00,WeatherDisplay:10.37,2013-07-17 08:54:00,
2013-07-17 02:59:00,60.9,53.3,30.23,North,11,0.0,0.0,76,0.00,-RA,OVC,0.00,WeatherDisplay:10.37,2013-07-17 08:59:00,
2013-07-17 03:04:00,60.8,53.2,30.23,North,11,0.0,0.0,76,0.00,-RA,OVC,0.00,WeatherDisplay:10.37,2013-07-17 09:04:00,
2013-07-17 03:09:00,60.6,53.0,30.23,North,11,0.0,0.0,76,0.00,-RA,OVC,0.00,WeatherDisplay:10.37,2013-07-17 09:09:00,
2013-07-17 03:14:00,60.4,52.8,30.23,North,11,0.0,0.0,76,0.00,-RA,OVC,0.00,WeatherDisplay:10.37,2013-07-17 09:14:00,
2013-07-17 03:19:00,60.1,52.5,30.23,North,11,0.0,0.0,76,0.00,-RA,OVC,0.00,WeatherDisplay:10.37,2013-07-17 09:19:00,
2013-07-17 03:24:00,59.9,52.3,30.23,North,11,0.0,0.0,76,0.00,-RA,OVC,0.00,WeatherDisplay:10.37,2013-07-17 09:24:00,
2013-07-17 03:29:00,59.6,52.0,30.23,North,11,0.0,0.0,76,0.00,-RA,OVC,0.00,WeatherDisplay:10.37,2013-07-17 09:29:00,
2013-07-17 03:34:00,59.4,52.2,30.23,North,11,0.0,0.0,77,0.00,-RA,OVC,0.00,WeatherDisplay:10.37,2013-07-17 09:34:00,
2013-07-17 03:39:00,59.1,51.9,30.23,North,11,0.0,0.0,77,0.00,-RA,OVC,0.00,WeatherDisplay:10.37,2013-07-17 09:39:00,
2013-07-17 03:44:00,58.8,52.0,30.23,North,11,0.0,0.0,78,0.00,-RA,OVC,0.00,WeatherDisplay:10.37,2013-07-17 09:44:00,
2013-07-17 03:49:00,58.5,52.0,30.23,North,11,0.0,0.0,79,0.00,-RA,OVC,0.00,WeatherDisplay:10.37,2013-07-17 09:49:00,
2013-07-17 03:54:00,58.3,51.8,30.23,North,11,0.0,0.0,79,0.00,-RA,OVC,0.00,WeatherDisplay:10.37,2013-07-17 09:54:00,
2013-07-17 03:59:00,58.1,51.6,30.23,North,11,0.0,0.0,79,0.00,-RA,OVC,0.00,WeatherDisplay:10.37,2013-07-17 09:59:00,
2013-07-17 04:04:00,58.0,51.5,30.23,North,11,0.0,0.0,79,0.00,-RA,OVC,0.00,WeatherDisplay:10.37,2013-07-17 10:04:00,
2013-07-17 04:09:00,57.8,51.3,30.23,North,11,0.0,0.0,79,0.00,-RA,OVC,0.00,WeatherDisplay:10.37,2013-07-17 10:09:00,
2013-07-17 04:14:00,57.6,51.1,30.23,North,11,0.0,0.0,79,0.00,-RA,OVC,0.00,WeatherDisplay:10.37,2013-07-17 10:14:00,
2013-07-17 04:19:00,57.4,51.3,30.22,North,11,0.0,0.0,80,0.00,-RA,OVC,0.00,WeatherDisplay:10.37,2013-07-17 10:19:00,
2013-07-17 04:24:00,57.3,51.2,30.22,North,11,0.0,0.0,80,0.00,-RA,OVC,0.00,WeatherDisplay:10.37,2013-07-17 10:24:00,
2013-07-17 04:29:00,57.3,50.8,30.22,North,11,0.0,0.0,79,0.00,-RA,OVC,0.00,WeatherDisplay:10.37,2013-07-17 10:29:00,
2013-07-17 04:34:00,57.1,51.0,30.22,North,11,0.0,0.0,80,0.00,-RA,OVC,0.00,WeatherDisplay:10.37,2013-07-17 10:34:00,
2013-07-17 04:39:00,56.8,50.7,30.22,North,11,0.0,0.0,80,0.00,-RA,OVC,0.00,WeatherDisplay:10.37,2013-07-17 10:39:00,
2013-07-17 04:44:00,56.6,50.5,30.22,North,11,0.0,0.0,80,0.00,-RA,OVC,0.00,WeatherDisplay:10.37,2013-07-17 10:44:00,
2013-07-17 04:49:00,56.2,50.4,30.22,North,11,0.0,0.0,81,0.00,-RA,OVC,0.00,WeatherDisplay:10.37,2013-07-17 10:49:00,
2013-07-17 04:54:00,56.0,50.9,30.22,North,11,0.0,0.0,83,0.00,-RA,OVC,0.00,WeatherDisplay:10.37,2013-07-17 10:54:00,
2013-07-17 04:59:00,55.9,50.8,30.22,North,11,0.0,0.0,83,0.00,-RA,OVC,0.00,WeatherDisplay:10.37,2013-07-17 10:59:00,
2013-07-17 05:04:00,55.8,50.7,30.22,North,11,0.0,0.0,83,0.00,-RA,OVC,0.00,WeatherDisplay:10.37,2013-07-17 11:04:00,
2013-07-17 05:09:00,55.7,50.9,30.22,North,11,0.0,0.0,84,0.00,-RA,OVC,0.00,WeatherDisplay:10.37,2013-07-17 11:09:00,
2013-07-17 05:14:00,55.6,50.8,30.22,North,11,0.0,0.0,84,0.00,-RA,OVC,0.00,WeatherDisplay:10.37,2013-07-17 11:14:00,
2013-07-17 05:19:00,55.5,50.7,30.22,North,11,0.0,0.0,84,0.00,-RA,OVC,0.00,WeatherDisplay:10.37,2013-07-17 11:19:00,
2013-07-17 05:24:00,55.3,50.5,30.22,North,11,0.0,0.0,84,0.00,-RA,OVC,0.00,WeatherDisplay:10.37,2013-07-17 11:24:00,
2013-07-17 05:29:00,55.2,50.8,30.22,North,11,0.0,0.0,85,0.00,-RA,OVC,0.00,WeatherDisplay:10.37,2013-07-17 11:29:00,
2013-07-17 05:34:00,55.0,50.6,30.22,North,11,0.0,0.0,85,0.00,-RA,OVC,0.00,WeatherDisplay:10.37,2013-07-17 11:34:00,
2013-07-17 05:39:00,55.0,50.9,30.22,North,11,0.0,0.0,86,0.00,-RA,OVC,0.00,WeatherDisplay:10.37,2013-07-17 11:39:00,
2013-07-17 05:44:00,55.0,50.6,30.22,North,11,0.0,0.0,85,0.00,-RA,OVC,0.00,WeatherDisplay:10.37,2013-07-17 11:44:00,
2013-07-17 05:49:00,54.9,50.8,30.22,North,11,0.0,0.0,86,0.00,-RA,OVC,0.00,WeatherDisplay:10.37,2013-07-17 11:49:00,
2013-07-17 05:54:00,54.7,50.6,30.22,North,11,0.0,0.0,86,0.00,-RA,OVC,0.00,WeatherDisplay:10.37,2013-07-17 11:54:00,
2013-07-17 05:59:00,54.6,50.5,30.22,North,11,0.0,0.0,86,0.00,-RA,OVC,0.00,WeatherDisplay:10.37,2013-07-17 11:59:00,
2013-07-17 06:04:00,54.6,50.5,30.22,North,11,0.0,0.0,86,0.00,-RA,OVC,0.00,WeatherDisplay:10.37,2013-07-17 12:04:00,
2013-07-17 06:09:00,54.5,50.7,30.22,North,11,0.0,0.0,87,0.00,-RA,OVC,0.00,WeatherDisplay:10.37,2013-07-17 12:09:00,
2013-07-17 06:14:00,54.6,50.8,30.22,North,11,0.0,0.0,87,0.00,-RA,OVC,0.00,WeatherDisplay:10.37,2013-07-17 12:14:00,
2013-07-17 06:19:00,54.6,50.8,30.22,North,11,0.0,0.0,87,0.00,-RA,OVC,0.00,WeatherDisplay:10.37,2013-07-17 12:19:00,
2013-07-17 06:24:00,54.7,50.9,30.22,North,11,0.0,0.0,87,0.00,-RA,OVC,0.00,WeatherDisplay:10.37,2013-07-17 12:24:00,
2013-07-17 06:29:00,54.8,51.0,30.22,North,11,0.0,0.0,87,0.00,-RA,OVC,0.00,WeatherDisplay:10.37,2013-07-17 12:29:00,
2013-07-17 06:34:00,55.0,51.5,30.22,North,11,0.0,0.0,88,0.00,-RA,OVC,0.00,WeatherDisplay:10.37,2013-07-17 12:34:00,
2013-07-17 06:39:00,55.2,52.0,30.22,North,11,0.0,0.0,89,0.00,-RA,OVC,0.00,WeatherDisplay:10.37,2013-07-17 12:39:00,
2013-07-17 06:44:00,55.5,52.3,30.22,North,11,0.0,0.0,89,0.00,-RA,OVC,0.00,WeatherDisplay:10.37,2013-07-17 12:44:00,
2013-07-17 06:49:00,55.8,52.9,30.22,North,11,0.0,0.0,90,0.00,-RA,OVC,0.00,WeatherDisplay:10.37,2013-07-17 12:49:00,
2013-07-17 06:54:00,56.3,53.1,30.22,North,11,0.0,0.0,89,0.00,-RA,OVC,0.00,WeatherDisplay:10.37,2013-07-17 12:54:00,
2013-07-17 06:59:00,57.1,53.3,30.22,North,11,0.0,0.0,87,0.00,-RA,OVC,0.00,WeatherDisplay:10.37,2013-07-17 12:59:00,
2013-07-17 07:04:00,58.0,53.5,30.22,North,11,0.0,0.0,85,0.00,-RA,OVC,0.00,WeatherDisplay:10.37,2013-07-17 13:04:00,
2013-07-17 07:09:00,58.9,53.7,30.22,North,11,0.0,0.0,83,0.00,-RA,OVC,0.00,WeatherDisplay:10.37,2013-07-17 13:09:00,
2013-07-17 07:14:00,59.9,53.7,30.22,North,11,2.3,2.3,80,0.00,-RA,OVC,0.00,WeatherDisplay:10.37,2013-07-17 13:14:00,
2013-07-17 07:19:00,60.8,53.9,30.22,North,11,2.3,2.3,78,0.00,-RA,OVC,0.00,WeatherDisplay:10.37,2013-07-17 13:19:00,
2013-07-17 07:24:00,61.6,54.3,30.22,North,11,0.0,0.0,77,0.00,-RA,OVC,0.00,WeatherDisplay:10.37,2013-07-17 13:24:00,
2013-07-17 07:29:00,62.5,54.1,30.22,North,11,0.0,0.0,74,0.00,-RA,OVC,0.00,WeatherDisplay:10.37,2013-07-17 13:29:00,
2013-07-17 07:34:00,63.1,54.7,30.22,North,11,0.0,0.0,74,0.00,-RA,OVC,0.00,WeatherDisplay:10.37,2013-07-17 13:34:00,
2013-07-17 07:39:00,64.0,55.2,30.22,North,11,0.0,0.0,73,0.00,-RA,OVC,0.00,WeatherDisplay:10.37,2013-07-17 13:39:00,
2013-07-17 07:44:00,64.9,54.9,30.22,North,11,0.0,0.0,70,0.00,-RA,OVC,0.00,WeatherDisplay:10.37,2013-07-17 13:44:00,
2013-07-17 07:49:00,65.5,55.1,30.22,North,11,0.0,0.0,69,0.00,-RA,OVC,0.00,WeatherDisplay:10.37,2013-07-17 13:49:00,
2013-07-17 07:54:00,66.2,55.3,30.22,North,11,2.3,2.3,68,0.00,-RA,OVC,0.00,WeatherDisplay:10.37,2013-07-17 13:54:00,
2013-07-17 07:59:00,66.5,55.2,30.22,North,11,0.0,0.0,67,0.00,-RA,OVC,0.00,WeatherDisplay:10.37,2013-07-17 13:59:00,
2013-07-17 08:04:00,66.8,55.5,30.22,North,11,1.1,1.1,67,0.00,-RA,OVC,0.00,WeatherDisplay:10.37,2013-07-17 14:04:00,
2013-07-17 08:09:00,67.3,56.0,30.22,North,11,1.1,1.1,67,0.00,-RA,OVC,0.00,WeatherDisplay:10.37,2013-07-17 14:09:00,
2013-07-17 08:14:00,67.4,56.1,30.22,North,11,0.0,0.0,67,0.00,-RA,OVC,0.00,WeatherDisplay:10.37,2013-07-17 14:14:00,
2013-07-17 08:19:00,67.7,56.3,30.22,North,11,0.0,0.0,67,0.00,-RA,OVC,0.00,WeatherDisplay:10.37,2013-07-17 14:19:00,
2013-07-17 08:24:00,68.1,56.7,30.22,North,11,0.0,0.0,67,0.00,-RA,OVC,0.00,WeatherDisplay:10.37,2013-07-17 14:24:00,
2013-07-17 08:29:00,68.5,56.7,30.22,North,11,0.0,0.0,66,0.00,-RA,OVC,0.00,WeatherDisplay:10.37,2013-07-17 14:29:00,
2013-07-17 08:34:00,68.5,56.7,30.22,North,11,1.1,0.0,66,0.00,-RA,OVC,0.00,WeatherDisplay:10.37,2013-07-17 14:34:00,
2013-07-17 08:39:00,68.7,56.9,30.22,North,11,1.1,1.1,66,0.00,-RA,OVC,0.00,WeatherDisplay:10.37,2013-07-17 14:39:00,
2013-07-17 08:44:00,69.0,56.3,30.22,North,11,2.3,2.3,64,0.00,-RA,OVC,0.00,WeatherDisplay:10.37,2013-07-17 14:44:00,
2013-07-17 08:49:00,69.4,56.3,30.22,North,11,1.1,0.0,63,0.00,-RA,OVC,0.00,WeatherDisplay:10.37,2013-07-17 14:49:00,
2013-07-17 08:54:00,69.8,56.6,30.22,North,11,1.1,1.1,63,0.00,-RA,OVC,0.00,WeatherDisplay:10.37,2013-07-17 14:54:00,
2013-07-17 08:59:00,70.3,56.2,30.22,North,11,2.3,2.3,61,0.00,-RA,OVC,0.00,WeatherDisplay:10.37,2013-07-17 14:59:00,
2013-07-17 09:04:00,70.4,56.3,30.22,North,11,4.6,4.6,61,0.00,-RA,OVC,0.00,WeatherDisplay:10.37,2013-07-17 15:04:00,
2013-07-17 09:09:00,70.5,55.9,30.22,North,11,1.1,0.0,60,0.00,-RA,OVC,0.00,WeatherDisplay:10.37,2013-07-17 15:09:00,
2013-07-17 09:14:00,70.9,56.8,30.22,North,11,1.0,1.0,61,0.00,-RA,OVC,0.00,WeatherDisplay:10.37,2013-07-17 15:14:00,
2013-07-17 09:19:00,71.4,56.8,30.22,North,11,0.0,0.0,60,0.00,-RA,OVC,0.00,WeatherDisplay:10.37,2013-07-17 15:19:00,
2013-07-17 09:24:00,71.9,56.8,30.22,North,11,2.3,2.3,59,0.00,-RA,OVC,0.00,WeatherDisplay:10.37,2013-07-17 15:24:00,
2013-07-17 09:29:00,71.9,56.3,30.22,North,11,2.3,2.3,58,0.00,-RA,OVC,0.00,WeatherDisplay:10.37,2013-07-17 15:29:00,
2013-07-17 09:34:00,71.8,56.7,30.22,North,11,1.1,0.0,59,0.00,-RA,OVC,0.00,WeatherDisplay:10.37,2013-07-17 15:34:00,
2013-07-17 09:39:00,72.3,56.7,30.22,North,11,2.3,2.3,58,0.00,-RA,OVC,0.00,WeatherDisplay:10.37,2013-07-17 15:39:00,
2013-07-17 09:44:00,72.6,56.0,30.22,North,11,2.0,2.0,56,0.00,-RA,OVC,0.00,WeatherDisplay:10.37,2013-07-17 15:44:00,
2013-07-17 09:49:00,72.4,55.8,30.22,North,11,2.3,2.3,56,0.00,-RA,OVC,0.00,WeatherDisplay:10.37,2013-07-17 15:49:00,
2013-07-17 09:54:00,72.4,55.8,30.22,North,11,1.1,0.0,56,0.00,-RA,OVC,0.00,WeatherDisplay:10.37,2013-07-17 15:54:00,
2013-07-17 09:59:00,72.8,56.7,30.22,North,11,1.1,1.1,57,0.00,-RA,OVC,0.00,WeatherDisplay:10.37,2013-07-17 15:59:00,
2013-07-17 10:04:00,72.7,55.6,30.22,North,11,3.0,3.0,55,0.00,-RA,OVC,0.00,WeatherDisplay:10.37,2013-07-17 16:04:00,
2013-07-17 10:09:00,72.7,55.6,30.22,North,11,2.3,2.3,55,0.00,-RA,OVC,0.00,WeatherDisplay:10.37,2013-07-17 16:09:00,
2013-07-17 10:14:00,72.8,54.1,30.22,NNE,26,4.6,4.6,52,0.00,-RA,OVC,0.00,WeatherDisplay:10.37,2013-07-17 16:14:00,
2013-07-17 10:19:00,72.5,55.9,30.22,East,88,3.5,3.5,56,0.00,-RA,OVC,0.00,WeatherDisplay:10.37,2013-07-17 16:19:00,
2013-07-17 10:24:00,73.0,55.9,30.22,East,89,2.3,2.3,55,0.00,-RA,OVC,0.00,WeatherDisplay:10.37,2013-07-17 16:24:00,
2013-07-17 10:29:00,73.6,55.9,30.24,East,89,1.1,1.1,54,0.00,-RA,OVC,0.00,WeatherDisplay:10.37,2013-07-17 16:29:00,
2013-07-17 10:34:00,74.4,55.1,30.24,East,83,3.5,3.5,51,0.00,-RA,OVC,0.00,WeatherDisplay:10.37,2013-07-17 16:34:00,
2013-07-17 10:39:00,75.3,54.8,30.24,East,83,2.3,2.3,49,0.00,-RA,OVC,0.00,WeatherDisplay:10.37,2013-07-17 16:39:00,
2013-07-17 10:44:00,75.8,55.3,30.24,ENE,77,3.5,3.5,49,0.00,-RA,OVC,0.00,WeatherDisplay:10.37,2013-07-17 16:44:00,
2013-07-17 10:49:00,75.7,55.7,30.24,ENE,78,2.3,2.3,50,0.00,-RA,OVC,0.00,WeatherDisplay:10.37,2013-07-17 16:49:00,
2013-07-17 10:54:00,75.8,56.9,30.24,East,79,1.1,1.1,52,0.00,-RA,OVC,0.00,WeatherDisplay:10.37,2013-07-17 16:54:00,
2013-07-17 10:59:00,76.1,55.5,30.24,East,82,3.5,3.5,49,0.00,-RA,OVC,0.00,WeatherDisplay:10.37,2013-07-17 16:59:00,
2013-07-17 11:04:00,75.9,54.8,30.24,ESE,110,3.0,3.0,48,0.00,-RA,OVC,0.00,WeatherDisplay:10.37,2013-07-17 17:04:00,
2013-07-17 11:09:00,76.0,55.5,30.24,ESE,116,1.1,1.1,49,0.00,-RA,OVC,0.00,WeatherDisplay:10.37,2013-07-17 17:09:00,
2013-07-17 11:14:00,76.2,55.6,30.24,SE,133,2.3,2.3,49,0.00,-RA,OVC,0.00,WeatherDisplay:10.37,2013-07-17 17:14:00,
2013-07-17 11:19:00,77.0,56.4,30.24,SE,132,1.1,1.1,49,0.00,-RA,OVC,0.00,WeatherDisplay:10.37,2013-07-17 17:19:00,
2013-07-17 11:24:00,77.6,55.8,30.24,SE,130,1.1,1.1,47,0.00,-RA,OVC,0.00,WeatherDisplay:10.37,2013-07-17 17:24:00,
2013-07-17 11:29:00,78.0,56.7,30.24,ESE,114,3.5,3.5,48,0.00,-RA,OVC,0.00,WeatherDisplay:10.37,2013-07-17 17:29:00,
2013-07-17 11:34:00,78.2,55.7,30.24,NNE,32,6.9,6.9,46,0.00,-RA,OVC,0.00,WeatherDisplay:10.37,2013-07-17 17:34:00,
2013-07-17 11:39:00,78.3,55.8,30.24,NNE,30,3.5,3.5,46,0.00,-RA,OVC,0.00,WeatherDisplay:10.37,2013-07-17 17:39:00,
2013-07-17 11:44:00,78.8,56.3,30.24,NE,34,3.5,3.5,46,0.00,-RA,OVC,0.00,WeatherDisplay:10.37,2013-07-17 17:44:00,
2013-07-17 11:49:00,79.1,57.1,30.24,NE,38,3.5,3.5,47,0.00,-RA,OVC,0.00,WeatherDisplay:10.37,2013-07-17 17:49:00,
2013-07-17 11:54:00,79.3,56.7,30.24,NE,39,3.5,3.5,46,0.00,-RA,OVC,0.00,WeatherDisplay:10.37,2013-07-17 17:54:00,
2013-07-17 11:59:00,79.4,55.6,30.24,NE,40,1.1,1.1,44,0.00,-RA,OVC,0.00,WeatherDisplay:10.37,2013-07-17 17:59:00,
2013-07-17 12:04:00,79.9,56.7,30.24,NE,42,3.5,3.5,45,0.00,-RA,OVC,0.00,WeatherDisplay:10.37,2013-07-17 18:04:00,
2013-07-17 12:09:00,80.4,56.5,30.24,NE,42,2.3,2.3,44,0.00,-RA,OVC,0.00,WeatherDisplay:10.37,2013-07-17 18:09:00,
2013-07-17 12:14:00,81.0,56.4,30.24,NE,40,1.1,1.1,43,0.00,-RA,OVC,0.00,WeatherDisplay:10.37,2013-07-17 18:14:00,
2013-07-17 12:19:00,81.9,57.2,30.24,NE,42,2.3,2.3,43,0.00,-RA,OVC,0.00,WeatherDisplay:10.37,2013-07-17 18:19:00,
2013-07-17 12:24:00,82.1,56.1,30.24,NE,42,3.5,3.5,41,0.00,-RA,OVC,0.00,WeatherDisplay:10.37,2013-07-17 18:24:00,
2013-07-17 12:29:00,81.9,56.6,30.24,NE,43,1.1,1.1,42,0.00,-RA,OVC,0.00,WeatherDisplay:10.37,2013-07-17 18:29:00,
2013-07-17 12:34:00,82.1,56.7,30.24,South,184,4.6,4.6,42,0.00,-RA,OVC,0.00,WeatherDisplay:10.37,2013-07-17 18:34:00,
2013-07-17 12:39:00,82.0,57.3,30.24,South,189,3.0,3.0,43,0.00,-RA,OVC,0.00,WeatherDisplay:10.37,2013-07-17 18:39:00,
2013-07-17 12:44:00,81.9,55.9,30.22,South,185,3.5,3.5,41,0.00,-RA,OVC,0.00,WeatherDisplay:10.37,2013-07-17 18:44:00,
2013-07-17 12:49:00,81.9,57.2,30.22,South,185,1.1,1.1,43,0.00,-RA,OVC,0.00,WeatherDisplay:10.37,2013-07-17 18:49:00,
2013-07-17 12:54:00,82.4,56.3,30.22,South,184,2.3,2.3,41,0.00,-RA,OVC,0.00,WeatherDisplay:10.37,2013-07-17 18:54:00,
2013-07-17 12:59:00,83.0,56.2,30.22,South,184,3.5,3.5,40,0.00,-RA,OVC,0.00,WeatherDisplay:10.37,2013-07-17 18:59:00,
2013-07-17 13:04:00,83.1,56.3,30.22,South,191,2.3,2.3,40,0.00,-RA,OVC,0.00,WeatherDisplay:10.37,2013-07-17 19:04:00,
2013-07-17 13:09:00,83.8,56.9,30.22,SSW,192,4.6,4.6,40,0.00,-RA,OVC,0.00,WeatherDisplay:10.37,2013-07-17 19:09:00,
2013-07-17 13:14:00,83.6,55.3,30.22,South,184,3.5,3.5,38,0.00,-RA,OVC,0.00,WeatherDisplay:10.37,2013-07-17 19:14:00,
2013-07-17 13:19:00,83.6,56.7,30.22,SSW,194,1.1,1.1,40,0.00,-RA,OVC,0.00,WeatherDisplay:10.37,2013-07-17 19:19:00,
2013-07-17 13:24:00,83.7,56.8,30.22,SSW,198,3.5,3.5,40,0.00,-RA,OVC,0.00,WeatherDisplay:10.37,2013-07-17 19:24:00,
2013-07-17 13:29:00,84.2,55.8,30.20,West,269,3.5,3.5,38,0.00,-RA,OVC,0.00,WeatherDisplay:10.37,2013-07-17 19:29:00,
2013-07-17 13:34:00,84.8,54.9,30.20,West,269,1.1,1.1,36,0.00,-RA,OVC,0.00,WeatherDisplay:10.37,2013-07-17 19:34:00,
2013-07-17 13:39:00,85.3,56.8,30.20,West,260,3.0,3.0,38,0.00,-RA,OVC,0.00,WeatherDisplay:10.37,2013-07-17 19:39:00,
2013-07-17 13:44:00,85.4,56.9,30.20,North,5,3.5,3.5,38,0.00,-RA,OVC,0.00,WeatherDisplay:10.37,2013-07-17 19:44:00,
2013-07-17 13:49:00,85.5,56.3,30.20,NE,37,3.5,3.5,37,0.00,-RA,OVC,0.00,WeatherDisplay:10.37,2013-07-17 19:49:00,
2013-07-17 13:54:00,85.9,58.1,30.20,SSW,196,3.5,3.5,39,0.00,-RA,OVC,0.00,WeatherDisplay:10.37,2013-07-17 19:54:00,
2013-07-17 13:59:00,85.8,57.3,30.20,South,184,4.6,4.6,38,0.00,-RA,OVC,0.00,WeatherDisplay:10.37,2013-07-17 19:59:00,
2013-07-17 14:04:00,85.8,56.5,30.20,SSW,196,5.8,5.8,37,0.00,-RA,OVC,0.00,WeatherDisplay:10.37,2013-07-17 20:04:00,
2013-07-17 14:09:00,85.6,56.3,30.20,South,178,3.5,3.5,37,0.00,-RA,OVC,0.00,WeatherDisplay:10.37,2013-07-17 20:09:00,
2013-07-17 14:14:00,85.4,56.2,30.19,SSE,151,3.5,3.5,37,0.00,-RA,OVC,0.00,WeatherDisplay:10.37,2013-07-17 20:14:00,
2013-07-17 14:19:00,85.1,55.9,30.19,SSW,195,1.1,0.0,37,0.00,-RA,OVC,0.00,WeatherDisplay:10.37,2013-07-17 20:19:00,
2013-07-17 14:24:00,85.6,58.5,30.19,South,177,4.6,4.6,40,0.00,-RA,OVC,0.00,WeatherDisplay:10.37,2013-07-17 20:24:00,
2013-07-17 14:29:00,85.7,56.4,30.19,South,190,5.8,5.8,37,0.00,-RA,OVC,0.00,WeatherDisplay:10.37,2013-07-17 20:29:00,
2013-07-17 14:34:00,86.1,57.5,30.19,South,190,1.1,1.1,38,0.00,-RA,OVC,0.00,WeatherDisplay:10.37,2013-07-17 20:34:00,
2013-07-17 14:39:00,86.7,56.6,30.19,SW,218,3.5,3.5,36,0.00,-RA,OVC,0.00,WeatherDisplay:10.37,2013-07-17 20:39:00,
2013-07-17 14:44:00,87.4,57.2,30.19,SW,214,3.0,3.0,36,0.00,-RA,OVC,0.00,WeatherDisplay:10.37,2013-07-17 20:44:00,
2013-07-17 14:49:00,87.6,55.8,30.19,SW,214,1.1,1.1,34,0.00,-RA,OVC,0.00,WeatherDisplay:10.37,2013-07-17 20:49:00,
2013-07-17 14:54:00,87.9,56.0,30.19,SSW,202,3.5,3.5,34,0.00,-RA,OVC,0.00,WeatherDisplay:10.37,2013-07-17 20:54:00,
2013-07-17 14:59:00,88.1,55.4,30.19,SSW,205,1.1,1.1,33,0.00,-RA,OVC,0.00,WeatherDisplay:10.37,2013-07-17 20:59:00,
2013-07-17 15:04:00,88.4,55.6,30.19,SSW,207,2.3,0.0,33,0.00,-RA,OVC,0.00,WeatherDisplay:10.37,2013-07-17 21:04:00,
2013-07-17 15:09:00,88.7,57.5,30.19,SE,141,3.5,3.5,35,0.00,-RA,OVC,0.00,WeatherDisplay:10.37,2013-07-17 21:09:00,
2013-07-17 15:14:00,89.2,56.3,30.19,SE,144,1.1,1.1,33,0.00,-RA,OVC,0.00,WeatherDisplay:10.37,2013-07-17 21:14:00,
2013-07-17 15:19:00,89.6,56.7,30.19,SE,145,1.1,1.1,33,0.00,-RA,OVC,0.00,WeatherDisplay:10.37,2013-07-17 21:19:00,
2013-07-17 15:24:00,89.8,56.0,30.19,SE,145,1.1,0.0,32,0.00,-RA,OVC,0.00,WeatherDisplay:10.37,2013-07-17 21:24:00,
2013-07-17 15:29:00,89.8,55.1,30.19,SW,224,3.5,3.5,31,0.00,-RA,OVC,0.00,WeatherDisplay:10.37,2013-07-17 21:29:00,
2013-07-17 15:34:00,89.4,56.5,30.19,SSW,205,2.3,2.3,33,0.00,-RA,OVC,0.00,WeatherDisplay:10.37,2013-07-17 21:34:00,
2013-07-17 15:39:00,89.2,55.5,30.19,WSW,240,4.6,4.6,32,0.00,-RA,OVC,0.00,WeatherDisplay:10.37,2013-07-17 21:39:00,
2013-07-17 15:44:00,89.0,57.0,30.19,SW,214,6.9,6.9,34,0.00,-RA,OVC,0.00,WeatherDisplay:10.37,2013-07-17 21:44:00,
2013-07-17 15:49:00,89.0,56.2,30.17,SSW,201,3.5,3.5,33,0.00,-RA,OVC,0.00,WeatherDisplay:10.37,2013-07-17 21:49:00,
2013-07-17 15:54:00,89.2,56.3,30.17,SSW,205,1.1,1.1,33,0.00,-RA,OVC,0.00,WeatherDisplay:10.37,2013-07-17 21:54:00,
2013-07-17 15:59:00,89.9,56.1,30.17,SSW,209,3.5,3.5,32,0.00,-RA,OVC,0.00,WeatherDisplay:10.37,2013-07-17 21:59:00,
2013-07-17 16:04:00,90.1,56.3,30.17,SW,221,3.5,3.5,32,0.00,-RA,OVC,0.00,WeatherDisplay:10.37,2013-07-17 22:04:00,
2013-07-17 16:09:00,90.0,55.3,30.17,SSW,198,2.3,2.3,31,0.00,-RA,OVC,0.00,WeatherDisplay:10.37,2013-07-17 22:09:00,
2013-07-17 16:14:00,90.1,55.4,30.17,ESE,113,1.1,1.1,31,0.00,-RA,OVC,0.00,WeatherDisplay:10.37,2013-07-17 22:14:00,
2013-07-17 16:19:00,90.0,54.4,30.17,ESE,122,0.0,0.0,30,0.00,-RA,OVC,0.00,WeatherDisplay:10.37,2013-07-17 22:19:00,
2013-07-17 16:24:00,89.9,56.1,30.17,SE,127,2.3,2.3,32,0.00,-RA,OVC,0.00,WeatherDisplay:10.37,2013-07-17 22:24:00,
2013-07-17 16:29:00,90.2,56.4,30.17,SE,136,1.1,1.1,32,0.00,-RA,OVC,0.00,WeatherDisplay:10.37,2013-07-17 22:29:00,
2013-07-17 16:34:00,90.2,54.6,30.17,NE,45,1.1,1.1,30,0.00,-RA,OVC,0.00,WeatherDisplay:10.37,2013-07-17 22:34:00,
2013-07-17 16:39:00,90.2,56.4,30.17,ESE,123,3.5,3.5,32,0.00,-RA,OVC,0.00,WeatherDisplay:10.37,2013-07-17 22:39:00,
2013-07-17 16:44:00,89.8,55.1,30.17,SSE,155,3.5,3.5,31,0.00,-RA,OVC,0.00,WeatherDisplay:10.37,2013-07-17 22:44:00,
2013-07-17 16:49:00,89.7,55.0,30.17,SSE,165,4.6,4.6,31,0.00,-RA,OVC,0.00,WeatherDisplay:10.37,2013-07-17 22:49:00,
2013-07-17 16:54:00,89.7,55.9,30.17,SSE,165,0.0,0.0,32,0.00,-RA,OVC,0.00,WeatherDisplay:10.37,2013-07-17 22:54:00,
2013-07-17 16:59:00,90.1,54.5,30.17,SSE,163,2.3,2.3,30,0.00,-RA,OVC,0.00,WeatherDisplay:10.37,2013-07-17 22:59:00,
2013-07-17 17:04:00,90.4,53.8,30.17,SSE,162,1.1,1.1,29,0.00,-RA,OVC,0.00,WeatherDisplay:10.37,2013-07-17 23:04:00,
2013-07-17 17:09:00,90.7,55.0,30.17,SSE,165,1.1,0.0,30,0.00,-RA,OVC,0.00,WeatherDisplay:10.37,2013-07-17 23:09:00,
2013-07-17 17:14:00,91.0,56.2,30.17,SSE,156,2.3,2.3,31,0.00,-RA,OVC,0.00,WeatherDisplay:10.37,2013-07-17 23:14:00,
2013-07-17 17:19:00,90.4,54.7,30.17,ESE,115,3.5,3.5,30,0.00,-RA,OVC,0.00,WeatherDisplay:10.37,2013-07-17 23:19:00,
2013-07-17 17:24:00,89.3,53.8,30.17,ESE,115,1.1,1.1,30,0.00,-RA,OVC,0.00,WeatherDisplay:10.37,2013-07-17 23:24:00,
2013-07-17 17:29:00,89.3,53.8,30.17,ESE,114,4.0,4.0,30,0.00,-RA,OVC,0.00,WeatherDisplay:10.37,2013-07-17 23:29:00,
2013-07-17 17:34:00,89.1,53.6,30.17,ESE,111,2.3,2.3,30,0.00,-RA,OVC,0.00,WeatherDisplay:10.37,2013-07-17 23:34:00,
2013-07-17 17:39:00,89.2,54.6,30.17,ESE,111,1.1,0.0,31,0.00,-RA,OVC,0.00,WeatherDisplay:10.37,2013-07-17 23:39:00,
2013-07-17 17:44:00,89.5,53.0,30.17,ESE,113,2.3,2.3,29,0.00,-RA,OVC,0.00,WeatherDisplay:10.37,2013-07-17 23:44:00,
2013-07-17 17:49:00,89.7,53.2,30.17,SE,126,2.3,2.3,29,0.00,-RA,OVC,0.00,WeatherDisplay:10.37,2013-07-17 23:49:00,
2013-07-17 17:54:00,89.7,54.1,30.14,West,267,3.5,3.5,30,0.00,-RA,OVC,0.00,WeatherDisplay:10.37,2013-07-17 23:54:00,
2013-07-17 17:59:00,89.7,54.1,30.14,North,5,3.5,3.5,30,0.00,-RA,OVC,0.00,WeatherDisplay:10.37,2013-07-17 23:59:00,
2013-07-17 18:04:00,89.3,53.8,30.14,NNE,22,2.3,2.3,30,0.00,-RA,OVC,0.00,WeatherDisplay:10.37,2013-07-18 00:04:00,
2013-07-17 18:09:00,89.0,55.3,30.14,NNE,22,2.3,2.3,32,0.00,-RA,OVC,0.00,WeatherDisplay:10.37,2013-07-18 00:09:00,
2013-07-17 18:14:00,88.8,55.1,30.14,North,5,3.5,3.5,32,0.00,-RA,OVC,0.00,WeatherDisplay:10.37,2013-07-18 00:14:00,
2013-07-17 18:19:00,88.4,54.8,30.14,North,9,3.5,3.5,32,0.00,-RA,OVC,0.00,WeatherDisplay:10.37,2013-07-18 00:19:00,
2013-07-17 18:24:00,88.1,53.7,30.14,NNW,338,3.5,3.5,31,0.00,-RA,OVC,0.00,WeatherDisplay:10.37,2013-07-18 00:24:00,
2013-07-17 18:29:00,87.8,54.3,30.14,North,9,2.3,2.3,32,0.00,-RA,OVC,0.00,WeatherDisplay:10.37,2013-07-18 00:29:00,
2013-07-17 18:34:00,87.3,53.0,30.14,NNW,347,4.6,4.6,31,0.00,-RA,OVC,0.00,WeatherDisplay:10.37,2013-07-18 00:34:00,
2013-07-17 18:39:00,87.0,53.6,30.14,NNE,19,3.5,3.5,32,0.00,-RA,OVC,0.00,WeatherDisplay:10.37,2013-07-18 00:39:00,
2013-07-17 18:44:00,86.8,52.5,30.14,NNE,13,3.5,3.5,31,0.00,-RA,OVC,0.00,WeatherDisplay:10.37,2013-07-18 00:44:00,
2013-07-17 18:49:00,86.6,52.4,30.14,NNW,339,6.9,6.9,31,0.00,-RA,OVC,0.00,WeatherDisplay:10.37,2013-07-18 00:49:00,
2013-07-17 18:54:00,86.4,53.1,30.14,NNW,331,4.0,4.0,32,0.00,-RA,OVC,0.00,WeatherDisplay:10.37,2013-07-18 00:54:00,
2013-07-17 18:59:00,86.0,51.8,30.14,North,360,3.5,3.5,31,0.00,-RA,OVC,0.00,WeatherDisplay:10.37,2013-07-18 00:59:00,
2013-07-17 19:04:00,85.8,51.7,30.14,North,355,4.6,4.6,31,0.00,-RA,OVC,0.00,WeatherDisplay:10.37,2013-07-18 01:04:00,
2013-07-17 19:09:00,85.7,52.4,30.14,NNE,13,5.8,5.8,32,0.00,-RA,OVC,0.00,WeatherDisplay:10.37,2013-07-18 01:09:00,
2013-07-17 19:14:00,85.5,52.3,30.14,North,360,5.8,5.8,32,0.00,-RA,OVC,0.00,WeatherDisplay:10.37,2013-07-18 01:14:00,
2013-07-17 19:19:00,85.2,52.0,30.14,North,360,3.5,3.5,32,0.00,-RA,OVC,0.00,WeatherDisplay:10.37,2013-07-18 01:19:00,
2013-07-17 19:24:00,85.0,51.8,30.14,North,349,3.5,3.5,32,0.00,-RA,OVC,0.00,WeatherDisplay:10.37,2013-07-18 01:24:00,
2013-07-17 19:29:00,84.7,52.4,30.14,North,349,2.3,2.3,33,0.00,-RA,OVC,0.00,WeatherDisplay:10.37,2013-07-18 01:29:00,
2013-07-17 19:34:00,84.2,51.1,30.14,North,5,5.8,5.8,32,0.00,-RA,OVC,0.00,WeatherDisplay:10.37,2013-07-18 01:34:00,
2013-07-17 19:39:00,83.6,51.5,30.14,NNW,336,3.5,3.5,33,0.00,-RA,OVC,0.00,WeatherDisplay:10.37,2013-07-18 01:39:00,
2013-07-17 19:44:00,82.9,50.8,30.14,NNW,333,3.5,3.5,33,0.00,-RA,OVC,0.00,WeatherDisplay:10.37,2013-07-18 01:44:00,
2013-07-17 19:49:00,82.3,50.3,30.14,NE,36,3.5,3.5,33,0.00,-RA,OVC,0.00,WeatherDisplay:10.37,2013-07-18 01:49:00,
2013-07-17 19:54:00,81.9,50.8,30.14,NNE,22,1.1,1.1,34,0.00,-RA,OVC,0.00,WeatherDisplay:10.37,2013-07-18 01:54:00,
2013-07-17 19:59:00,81.5,50.4,30.14,NNE,28,4.6,4.6,34,0.00,-RA,OVC,0.00,WeatherDisplay:10.37,2013-07-18 01:59:00,
2013-07-17 20:04:00,81.1,50.1,30.14,NNE,28,3.5,3.5,34,0.00,-RA,OVC,0.00,WeatherDisplay:10.37,2013-07-18 02:04:00,
2013-07-17 20:09:00,80.7,49.7,30.14,North,355,2.3,2.3,34,0.00,-RA,OVC,0.00,WeatherDisplay:10.37,2013-07-18 02:09:00,
2013-07-17 20:14:00,80.4,50.2,30.14,North,355,3.5,3.5,35,0.00,-RA,OVC,0.00,WeatherDisplay:10.37,2013-07-18 02:14:00,
2013-07-17 20:19:00,80.2,50.1,30.14,North,355,3.5,3.5,35,0.00,-RA,OVC,0.00,WeatherDisplay:10.37,2013-07-18 02:19:00,
2013-07-17 20:24:00,79.9,49.8,30.14,North,355,3.5,3.5,35,0.00,-RA,OVC,0.00,WeatherDisplay:10.37,2013-07-18 02:24:00,
2013-07-17 20:29:00,79.7,49.6,30.14,North,9,1.1,1.1,35,0.00,-RA,OVC,0.00,WeatherDisplay:10.37,2013-07-18 02:29:00,
2013-07-17 20:34:00,79.4,50.1,30.14,North,9,0.0,0.2,36,0.00,-RA,OVC,0.00,WeatherDisplay:10.37,2013-07-18 02:34:00,
2013-07-17 20:39:00,79.1,49.8,30.14,NNE,13,3.5,3.5,36,0.00,-RA,OVC,0.00,WeatherDisplay:10.37,2013-07-18 02:39:00,
2013-07-17 20:44:00,78.9,49.7,30.14,North,355,1.1,0.0,36,0.00,-RA,OVC,0.00,WeatherDisplay:10.37,2013-07-18 02:44:00,
2013-07-17 20:49:00,78.7,50.2,30.14,North,355,0.0,0.1,37,0.00,-RA,OVC,0.00,WeatherDisplay:10.37,2013-07-18 02:49:00,
2013-07-17 20:54:00,78.4,50.7,30.14,North,355,0.0,0.0,38,0.00,-RA,OVC,0.00,WeatherDisplay:10.37,2013-07-18 02:54:00,
2013-07-17 20:59:00,78.1,50.4,30.14,North,355,1.1,1.1,38,0.00,-RA,OVC,0.00,WeatherDisplay:10.37,2013-07-18 02:59:00,
2013-07-17 21:04:00,77.8,50.2,30.14,North,355,1.1,1.1,38,0.00,-RA,OVC,0.00,WeatherDisplay:10.37,2013-07-18 03:04:00,
2013-07-17 21:09:00,77.6,50.0,30.14,North,355,0.0,0.0,38,0.00,-RA,OVC,0.00,WeatherDisplay:10.37,2013-07-18 03:09:00,
2013-07-17 21:14:00,77.3,50.4,30.14,North,355,4.6,4.6,39,0.00,-RA,OVC,0.00,WeatherDisplay:10.37,2013-07-18 03:14:00,
2013-07-17 21:19:00,77.0,50.1,30.14,North,355,0.0,0.0,39,0.00,-RA,OVC,0.00,WeatherDisplay:10.37,2013-07-18 03:19:00,
2013-07-17 21:24:00,76.8,50.0,30.14,North,355,0.0,0.0,39,0.00,-RA,OVC,0.00,WeatherDisplay:10.37,2013-07-18 03:24:00,
2013-07-17 21:29:00,76.6,50.5,30.14,North,355,3.5,3.5,40,0.00,-RA,OVC,0.00,WeatherDisplay:10.37,2013-07-18 03:29:00,
2013-07-17 21:34:00,76.4,51.0,30.14,North,355,0.0,0.3,41,0.00,-RA,OVC,0.00,WeatherDisplay:10.37,2013-07-18 03:34:00,
2013-07-17 21:39:00,76.2,51.4,30.14,North,355,3.5,3.5,42,0.00,-RA,OVC,0.00,WeatherDisplay:10.37,2013-07-18 03:39:00,
2013-07-17 21:44:00,76.0,51.2,30.14,North,355,3.5,3.5,42,0.00,-RA,OVC,0.00,WeatherDisplay:10.37,2013-07-18 03:44:00,
2013-07-17 21:49:00,75.9,51.2,30.14,NNE,26,4.6,4.6,42,0.00,-RA,OVC,0.00,WeatherDisplay:10.37,2013-07-18 03:49:00,
2013-07-17 21:54:00,75.9,51.2,30.14,NNE,21,4.6,4.6,42,0.00,-RA,OVC,0.00,WeatherDisplay:10.37,2013-07-18 03:54:00,
2013-07-17 21:59:00,75.8,51.1,30.14,NNE,32,4.6,4.6,42,0.00,-RA,OVC,0.00,WeatherDisplay:10.37,2013-07-18 03:59:00,
2013-07-17 22:00:00,75.7,51.0,30.14,NNE,33,4.6,4.6,42,0.00,-RA,OVC,0.00,WeatherDisplay:10.37,2013-07-18 04:00:00,
2013-07-17 22:01:00,75.7,51.0,30.14,NNE,33,5.8,5.8,42,0.00,-RA,OVC,0.00,WeatherDisplay:10.37,2013-07-18 04:01:00,
2013-07-17 22:02:00,75.7,51.0,30.14,NE,35,3.5,3.5,42,0.00,-RA,OVC,0.00,WeatherDisplay:10.37,2013-07-18 04:02:00,
2013-07-17 22:07:00,75.5,51.4,30.14,NE,35,3.5,3.5,43,0.00,-RA,OVC,0.00,WeatherDisplay:10.37,2013-07-18 04:07:00,
2013-07-17 22:12:00,75.2,51.2,30.14,NE,46,5.8,5.8,43,0.00,-RA,OVC,0.00,WeatherDisplay:10.37,2013-07-18 04:12:00,
2013-07-17 22:17:00,75.0,51.0,30.14,NE,46,2.3,2.3,43,0.00,-RA,OVC,0.00,WeatherDisplay:10.37,2013-07-18 04:17:00,
2013-07-17 22:22:00,74.8,50.8,30.14,NE,47,3.5,3.5,43,0.00,-RA,OVC,0.00,WeatherDisplay:10.37,2013-07-18 04:22:00,
2013-07-17 22:27:00,74.6,51.2,30.14,NE,44,3.5,3.5,44,0.00,-RA,OVC,0.00,WeatherDisplay:10.37,2013-07-18 04:27:00,
2013-07-17 22:32:00,74.5,51.2,30.14,NE,49,6.9,6.9,44,0.00,-RA,OVC,0.00,WeatherDisplay:10.37,2013-07-18 04:32:00,
2013-07-17 22:37:00,74.3,51.6,30.14,NE,45,5.8,5.8,45,0.00,-RA,OVC,0.00,WeatherDisplay:10.37,2013-07-18 04:37:00,
2013-07-17 22:42:00,74.2,51.5,30.14,NE,38,2.3,2.3,45,0.00,-RA,OVC,0.00,WeatherDisplay:10.37,2013-07-18 04:42:00,
2013-07-17 22:47:00,74.1,52.0,30.14,NE,34,3.5,3.5,46,0.00,-RA,OVC,0.00,WeatherDisplay:10.37,2013-07-18 04:47:00,
2013-07-17 22:52:00,74.0,51.9,30.14,NE,35,3.5,3.5,46,0.00,-RA,OVC,0.00,WeatherDisplay:10.37,2013-07-18 04:52:00,
2013-07-17 22:57:00,73.8,51.7,30.14,NNE,32,3.5,3.5,46,0.00,-RA,OVC,0.00,WeatherDisplay:10.37,2013-07-18 04:57:00,
2013-07-17 23:02:00,73.7,51.6,30.14,NNE,31,3.5,3.5,46,0.00,-RA,OVC,0.00,WeatherDisplay:10.37,2013-07-18 05:02:00,
2013-07-17 23:07:00,73.5,52.0,30.14,NNE,31,3.5,3.5,47,0.00,-RA,OVC,0.00,WeatherDisplay:10.37,2013-07-18 05:07:00,
2013-07-17 23:12:00,73.3,52.4,30.14,NNE,31,2.3,0.0,48,0.00,-RA,OVC,0.00,WeatherDisplay:10.37,2013-07-18 05:12:00,
2013-07-17 23:17:00,73.2,52.3,30.14,NNE,31,3.5,3.5,48,0.00,-RA,OVC,0.00,WeatherDisplay:10.37,2013-07-18 05:17:00,
2013-07-17 23:22:00,73.0,52.1,30.14,NNE,31,0.0,0.0,48,0.00,-RA,OVC,0.00,WeatherDisplay:10.37,2013-07-18 05:22:00,
2013-07-17 23:27:00,72.8,52.5,30.14,NNE,31,0.0,0.4,49,0.00,-RA,OVC,0.00,WeatherDisplay:10.37,2013-07-18 05:27:00,
2013-07-17 23:32:00,72.5,52.2,30.14,NNE,31,1.1,1.1,49,0.00,-RA,OVC,0.00,WeatherDisplay:10.37,2013-07-18 05:32:00,
2013-07-17 23:37:00,72.3,52.1,30.14,NNE,31,0.0,0.0,49,0.00,-RA,OVC,0.00,WeatherDisplay:10.37,2013-07-18 05:37:00,
2013-07-17 23:42:00,72.2,52.0,30.14,NNE,31,1.1,0.0,49,0.00,-RA,OVC,0.00,WeatherDisplay:10.37,2013-07-18 05:42:00,
2013-07-17 23:47:00,72.0,51.8,30.14,NNE,31,2.0,2.0,49,0.00,-RA,OVC,0.00,WeatherDisplay:10.37,2013-07-18 05:47:00,
2013-07-17 23:52:00,72.0,52.3,30.14,NNE,31,2.0,2.0,50,0.00,-RA,OVC,0.00,WeatherDisplay:10.37,2013-07-18 05:52:00,
2013-07-17 23:57:00,71.9,51.7,30.14,NNE,31,3.5,3.5,49,0.00,-RA,OVC,0.00,WeatherDisplay:10.37,2013-07-18 05:57:00,